Location: Mahannah Oil Field
(37.4664°N, 96.6003°W)
Time: 15:34:49
(UTC+00:00)

Vanguard 2 Rocket - Pass Details

Date: 29 January 2021
Orbit: 554 x 3325 km, 32.9° (Epoch: 06 March)

Event Time Altitude Azimuth Distance (km) Brightness Sun altitude
Rises 18:55:54 0° 231° (SW) 7,301 12.0 34.7°
Reaches altitude 10° 19:01:06 10° 227° (SW) 6,258 11.9 34.6°
Maximum altitude 19:19:39 53° 158° (SSE) 3,177 10.9 34.0°
Drops below altitude 10° 19:32:07 10° 87° (E) 4,376 10.3 33.5°
Sets 19:35:02 0° 82° (E) 5,056 10.5 33.3°
